Regional Weather Roundup
Issued by NWS Portland, ME

Current Version | Previous Version | Text Only | Print | Product List | Glossary On
Versions: 1 2 3 4 5 6 7 8 9 10 11 12 13 14 15 16 17 18 19 20 21 22 23 24 25 26 27 28 29 30 31 32 33 34 35 36 37 38 39 40 41 42 43 44 45 46 47 48 49 50
000 ASUS41 KGYX 290810 RWRGYX WEATHER ROUNDUP FOR MAINE AND NEW HAMPSHIRE NATIONAL WEATHER SERVICE GRAY ME 400 AM EDT FRI MAY 29 2015 MEZ002-005-006-010-012-015-018-020-021-024-026-027-029-290900- MAINE CITY SKY/WX TMP DP RH WIND PRES REMARKS PORTLAND CLOUDY 64 59 83 N5 30.21S SANFORD CLEAR 61 52 72 CALM 30.23R BAR HARBOR MOCLDY 59 59 100 N3 30.20R WISCASSET CLEAR 60 59 96 CALM 30.22R ROCKLAND CLEAR 63 61 94 N3 30.19R FRYEBURG CLEAR 54 53 97 CALM 30.25R LEWISTONAUBURN MOCLDY 63 55 77 N3 30.23R AUGUSTA PTCLDY 62 58 86 N7 30.22S WATERVILLE PTCLDY 63 57 82 N5 30.19S BANGOR PTCLDY 61 59 93 N7 30.22R GREENVILLE N/A 55 54 96 VRB6 30.24R MILLINOCKET CLOUDY 61 54 77 NW3 30.24R HOULTON CLOUDY 54 53 97 CALM 30.21R FOG PRESQUE ISLE CLEAR 54 48 82 N8 30.24R FRENCHVILLE CLEAR 46 42 86 N7 30.25R CARIBOU CLEAR 52 49 89 N5 30.24R $$ NHZ002-005-008-009-011-012-014-290900- NEW HAMPSHIRE CITY SKY/WX TMP DP RH WIND PRES REMARKS PORTSMOUTH PTCLDY 60 56 87 W6 30.22R ROCHESTER CLEAR 60 55 83 W6 30.22R NASHUA CLEAR 58 56 93 NW5 30.25R MANCHESTER CLEAR 62 55 77 NW6 30.23R CONCORD CLEAR 55 53 93 SE3 30.25R LACONIA PTCLDY 57 54 88 CALM 30.24R PLYMOUTH FAIR 60 59 97 W6 30.26R BERLIN MOCLDY 59 53 80 NW3 30.28R WHITEFIELD CLOUDY 60 57 89 CALM 30.29R JAFFREY CLEAR 53 52 96 CALM 30.27S KEENE CLEAR 54 52 94 CALM 30.28R LEBANON CLEAR 54 51 90 S3 30.28R MT WASHINGTON MOCLDY 45 37 76 N21 N/A $$ VTZ005-007-008-290900- VERMONT CITY SKY/WX TMP DP RH WIND PRES REMARKS MONTPELIER CLEAR 55 54 96 CALM 30.32F BURLINGTON CLEAR 57 54 89 NW3 30.28F $$ MAZ007-012-024-CTZ003-RIZ002-NYZ038-NYZ072-290900- SOUTHERN NEW ENGLAND AND NY CITY SKY/WX TMP DP RH WIND PRES REMARKS BOSTON PTCLDY 65 55 70 NW12 30.23R WORCESTER CLEAR 61 53 75 NW9 30.26R NANTUCKET CLOUDY 60 58 92 SW6 30.24R PROVIDENCE CLEAR 62 55 77 W3 30.24S HARTFORD CLEAR 57 53 86 N5 30.25R ALBANY CLEAR 58 53 84 N3 30.28S NEW YORK CITY CLEAR 67 53 61 NE5 30.25S $$ ANZ081-ANZ082-ANZ150-NHZ014-MEZ023>029-290900- COASTAL MARINE OBSERVATIONS STATION/POSITION TIME TEMP WIND PRES WAVE AIR SEA DIR/SP/G HT/PER (UTC) (F) (DEG/KT/KT) (MB) (FT/S) MOUNT DESERT ROC 0800 51 320/ 14/ 14 N/A MATINICUS ROCK 0800 60 350/ 14/ 15 N/A ISLE OF SHOALS 0800 62 290/ 9/ 10 N/A JEFFREYS LEDGE 0703 50 N/A 3/ 6 CASHES LEDGE BUO 0750 54 51 N/A GEORGES BANK BUO 0750 57 52 210/ 10/ 10 N/A 3/ 5 $$ .............KEY.............. WCI - WIND CHILL TC - TEMPERATURE IN CELSIUS VSB - VISIBILITY IN MILES HX - HEAT INDEX FAIR- INDICATES FEW OR NO CLOUDS BELOW 12,000 FT, WITH NO SIGNIFICANT WEATHER AND/OR OBSTRUCTIONS TO VISIBILITY.

USA.gov is the U.S. government's official web portal to all federal, state and local government web resources and services.